When you browse on this site, cookies collect data to enhance your experience and personalize the content and advertising you see.
Visit our Privacy Policy to learn more. By continuing to use the site, you agree to this use of cookies and data.
  • In Deutschland
  • Länderverzeichnis
  • Für 7 Tage
  • Wassertemperatur
  • Wetterkarte
  • Widgets
  • user-avatar
    Anmelden

    Stündliche Wetter Bridgetown

    Heute, 23 September, Montag

    Zeit Temperatur Niederschläge Wind Luftdruck Luftfeuchtigkeit
    00:00 +28°C° 0.2 mm 6 m/S 759 mmHg 82%
    01:00 +28°C° 0.2 mm 6 m/S 759 mmHg 82%
    02:00 +28°C° 0 mm 5 m/S 759 mmHg 82%
    03:00 +28°C° 0.9 mm 5 m/S 759 mmHg 82%
    04:00 +28°C° 0.9 mm 5 m/S 759 mmHg 81%
    05:00 +28°C° 0.9 mm 5 m/S 759 mmHg 81%
    06:00 +29°C° 0.6 mm 5 m/S 759 mmHg 79%
    07:00 +29°C° 0.6 mm 5 m/S 760 mmHg 77%
    08:00 +30°C° 0.6 mm 5 m/S 760 mmHg 75%
    09:00 +30°C° 0.5 mm 5 m/S 760 mmHg 75%
    10:00 +30°C° 0.5 mm 5 m/S 760 mmHg 74%
    11:00 +30°C° 0.5 mm 4 m/S 760 mmHg 74%
    12:00 +30°C° 0 mm 4 m/S 760 mmHg 75%
    13:00 +30°C° 0 mm 4 m/S 760 mmHg 76%
    14:00 +30°C° 0 mm 4 m/S 759 mmHg 77%
    15:00 +30°C° 0.3 mm 4 m/S 759 mmHg 76%
    16:00 +30°C° 0.3 mm 4 m/S 759 mmHg 76%
    17:00 +30°C° 0.3 mm 4 m/S 759 mmHg 76%
    18:00 +29°C° 0 mm 4 m/S 759 mmHg 76%
    19:00 +29°C° 0 mm 4 m/S 759 mmHg 76%
    20:00 +29°C° 0 mm 4 m/S 760 mmHg 76%
    21:00 +29°C° 0 mm 4 m/S 759 mmHg 77%
    22:00 +29°C° 0 mm 4 m/S 759 mmHg 77%
    23:00 +29°C° 0 mm 4 m/S 759 mmHg 78%

    Morgen, 24 September, Dienstag

    Zeit Temperatur Niederschläge Wind Luftdruck Luftfeuchtigkeit
    00:00 +29°C° 0 mm 4 m/S 759 mmHg 79%
    01:00 +29°C° 0 mm 5 m/S 759 mmHg 80%
    02:00 +29°C° 0 mm 5 m/S 758 mmHg 80%
    03:00 +29°C° 0 mm 5 m/S 758 mmHg 81%
    04:00 +29°C° 0 mm 6 m/S 758 mmHg 81%
    05:00 +29°C° 0 mm 6 m/S 758 mmHg 82%
    06:00 +29°C° 0 mm 6 m/S 759 mmHg 80%
    07:00 +30°C° 0 mm 6 m/S 759 mmHg 78%
    08:00 +30°C° 0 mm 6 m/S 760 mmHg 76%
    09:00 +32°C° 0 mm 6 m/S 760 mmHg 75%
    10:00 +32°C° 0 mm 6 m/S 760 mmHg 73%
    11:00 +33°C° 0 mm 6 m/S 760 mmHg 72%
    12:00 +33°C° 0 mm 5 m/S 760 mmHg 71%
    13:00 +33°C° 0 mm 5 m/S 759 mmHg 71%
    14:00 +33°C° 0 mm 5 m/S 759 mmHg 71%
    15:00 +32°C° 0 mm 5 m/S 759 mmHg 73%
    16:00 +32°C° 0 mm 5 m/S 759 mmHg 76%
    17:00 +30°C° 0 mm 5 m/S 759 mmHg 78%
    18:00 +30°C° 0 mm 5 m/S 759 mmHg 80%
    19:00 +30°C° 0 mm 5 m/S 760 mmHg 81%
    20:00 +29°C° 0 mm 4 m/S 760 mmHg 83%
    21:00 +29°C° 0 mm 4 m/S 760 mmHg 83%
    22:00 +29°C° 0 mm 4 m/S 760 mmHg 84%
    23:00 +29°C° 0 mm 4 m/S 760 mmHg 84%

    übermorgen, 25 September, Mittwoch

    Zeit Temperatur Niederschläge Wind Luftdruck Luftfeuchtigkeit
    00:00 +29°C° 0 mm 4 m/S 760 mmHg 84%
    01:00 +29°C° 0 mm 4 m/S 760 mmHg 84%
    02:00 +29°C° 0 mm 4 m/S 759 mmHg 85%
    03:00 +29°C° 0 mm 4 m/S 759 mmHg 85%
    04:00 +29°C° 0 mm 5 m/S 759 mmHg 85%
    05:00 +29°C° 0 mm 5 m/S 759 mmHg 85%
    06:00 +29°C° 0 mm 5 m/S 760 mmHg 83%
    07:00 +30°C° 0 mm 5 m/S 760 mmHg 80%
    08:00 +30°C° 0 mm 5 m/S 761 mmHg 78%
    09:00 +32°C° 0 mm 5 m/S 761 mmHg 77%
    10:00 +32°C° 0 mm 5 m/S 761 mmHg 75%
    11:00 +32°C° 0 mm 5 m/S 761 mmHg 73%
    12:00 +32°C° 0 mm 4 m/S 760 mmHg 74%
    13:00 +32°C° 0 mm 4 m/S 759 mmHg 75%
    14:00 +32°C° 0 mm 4 m/S 759 mmHg 76%
    15:00 +32°C° 0.2 mm 5 m/S 759 mmHg 78%
    16:00 +32°C° 0.2 mm 5 m/S 759 mmHg 79%
    17:00 +30°C° 0.2 mm 5 m/S 759 mmHg 81%
    18:00 +30°C° 0.1 mm 5 m/S 759 mmHg 81%
    19:00 +30°C° 0.1 mm 5 m/S 759 mmHg 81%
    20:00 +29°C° 0.1 mm 6 m/S 759 mmHg 81%
    21:00 +29°C° 0 mm 5 m/S 759 mmHg 82%
    22:00 +29°C° 0 mm 5 m/S 759 mmHg 83%
    23:00 +29°C° 0 mm 5 m/S 760 mmHg 84%

    26 September, Donnerstag

    Zeit Temperatur Niederschläge Wind Luftdruck Luftfeuchtigkeit
    00:00 +29°C° 0 mm 5 m/S 759 mmHg 83%
    01:00 +29°C° 0 mm 5 m/S 759 mmHg 83%
    02:00 +29°C° 0 mm 5 m/S 758 mmHg 82%
    03:00 +29°C° 0 mm 5 m/S 758 mmHg 83%
    04:00 +29°C° 0 mm 5 m/S 758 mmHg 83%
    05:00 +28°C° 0 mm 5 m/S 759 mmHg 84%
    06:00 +29°C° 0 mm 5 m/S 759 mmHg 81%
    07:00 +29°C° 0 mm 4 m/S 759 mmHg 78%
    08:00 +30°C° 0 mm 4 m/S 760 mmHg 76%
    09:00 +30°C° 0.3 mm 5 m/S 760 mmHg 76%
    10:00 +30°C° 0.3 mm 5 m/S 760 mmHg 77%
    11:00 +30°C° 0.3 mm 6 m/S 760 mmHg 78%
    12:00 +30°C° 0.2 mm 6 m/S 759 mmHg 75%
    13:00 +32°C° 0.2 mm 5 m/S 759 mmHg 71%
    14:00 +32°C° 0.2 mm 5 m/S 758 mmHg 68%
    15:00 +32°C° 0 mm 5 m/S 758 mmHg 70%
    16:00 +30°C° 0 mm 5 m/S 758 mmHg 71%
    17:00 +30°C° 0 mm 5 m/S 758 mmHg 73%
    18:00 +30°C° 0 mm 5 m/S 758 mmHg 74%
    19:00 +29°C° 0 mm 5 m/S 759 mmHg 76%
    20:00 +29°C° 0 mm 5 m/S 759 mmHg 77%
    21:00 +29°C° 0 mm 5 m/S 759 mmHg 77%
    22:00 +29°C° 0 mm 4 m/S 759 mmHg 76%
    23:00 +29°C° 0 mm 4 m/S 760 mmHg 76%

    27 September, Freitag

    Zeit Temperatur Niederschläge Wind Luftdruck Luftfeuchtigkeit
    00:00 +29°C° 0.1 mm 4 m/S 759 mmHg 77%
    01:00 +29°C° 0.1 mm 4 m/S 759 mmHg 78%
    02:00 +29°C° 0.1 mm 4 m/S 759 mmHg 79%
    03:00 +28°C° 0.1 mm 5 m/S 759 mmHg 80%
    04:00 +28°C° 0.1 mm 5 m/S 758 mmHg 81%
    05:00 +28°C° 0.1 mm 5 m/S 758 mmHg 81%
    06:00 +29°C° 0 mm 5 m/S 759 mmHg 79%
    07:00 +29°C° 0 mm 5 m/S 759 mmHg 76%
    08:00 +29°C° 0 mm 5 m/S 759 mmHg 74%
    09:00 +30°C° 0 mm 5 m/S 759 mmHg 72%
    10:00 +30°C° 0 mm 5 m/S 760 mmHg 71%
    11:00 +32°C° 0 mm 5 m/S 760 mmHg 69%
    12:00 +32°C° 0 mm 5 m/S 759 mmHg 69%
    13:00 +32°C° 0 mm 4 m/S 759 mmHg 69%
    14:00 +32°C° 0 mm 4 m/S 758 mmHg 70%
    15:00 +32°C° 0 mm 4 m/S 758 mmHg 71%
    16:00 +30°C° 0 mm 4 m/S 758 mmHg 72%
    17:00 +30°C° 0 mm 4 m/S 758 mmHg 74%
    18:00 +30°C° 0 mm 4 m/S 758 mmHg 75%
    19:00 +30°C° 0 mm 4 m/S 758 mmHg 77%
    20:00 +30°C° 0 mm 4 m/S 759 mmHg 79%
    21:00 +30°C° 0 mm 4 m/S 759 mmHg 80%
    22:00 +29°C° 0 mm 4 m/S 759 mmHg 80%
    23:00 +29°C° 0 mm 4 m/S 759 mmHg 81%

    28 September, Samstag

    Zeit Temperatur Niederschläge Wind Luftdruck Luftfeuchtigkeit
    00:00 +29°C° 0.1 mm 5 m/S 758 mmHg 81%
    01:00 +29°C° 0.1 mm 6 m/S 758 mmHg 80%
    02:00 +29°C° 0.1 mm 6 m/S 758 mmHg 80%
    03:00 +29°C° 0 mm 6 m/S 758 mmHg 80%
    04:00 +29°C° 0 mm 6 m/S 758 mmHg 80%
    05:00 +29°C° 0 mm 6 m/S 757 mmHg 80%
    06:00 +30°C° 0 mm 6 m/S 758 mmHg 79%
    07:00 +30°C° 0 mm 7 m/S 758 mmHg 79%
    08:00 +30°C° 0 mm 7 m/S 759 mmHg 78%
    09:00 +32°C° 0.1 mm 7 m/S 759 mmHg 77%
    10:00 +32°C° 0.1 mm 7 m/S 759 mmHg 75%
    11:00 +32°C° 0.1 mm 7 m/S 759 mmHg 73%
    12:00 +32°C° 0 mm 7 m/S 759 mmHg 72%
    13:00 +32°C° 0 mm 6 m/S 758 mmHg 70%
    14:00 +32°C° 0 mm 6 m/S 758 mmHg 68%
    15:00 +32°C° 0 mm 6 m/S 758 mmHg 71%
    16:00 +32°C° 0 mm 6 m/S 758 mmHg 74%
    17:00 +30°C° 0 mm 6 m/S 757 mmHg 77%
    18:00 +30°C° 0 mm 6 m/S 758 mmHg 78%
    19:00 +30°C° 0 mm 6 m/S 758 mmHg 79%
    20:00 +30°C° 0 mm 6 m/S 758 mmHg 80%
    21:00 +30°C° 0.2 mm 6 m/S 759 mmHg 81%
    22:00 +30°C° 0.2 mm 6 m/S 759 mmHg 81%
    23:00 +29°C° 0.2 mm 7 m/S 759 mmHg 81%
    Mehr zeigen